Regional Weather Roundup
Issued by NWS Charleston, SC

Home | Current Version | Previous Version | Text Only | Print | Product List | Glossary On
Versions: 1 2 3 4 5 6 7 8 9 10 11 12 13 14 15 16 17 18 19 20 21 22 23 24 25 26 27 28 29 30 31 32 33 34 35 36 37 38 39 40 41 42 43 44 45 46 47 48 49 50
000
ASUS42 KCHS 191227
RWRCHS

REGIONAL WEATHER ROUNDUP
NATIONAL WEATHER SERVICE CHARLESTON SC
700 AM EST THU JAN 19 2017

NOTE: "FAIR" INDICATES FEW OR NO CLOUDS BELOW 12,000 FEET WITH NO
SIGNIFICANT WEATHER AND/OR OBSTRUCTIONS TO VISIBILITY.

NOT ALL STATIONS ARE QUALITY CONTROLLED. USE DATA WITH CAUTION...
ESPECIALLY DEWPOINT OBSERVATIONS.

SCZ027-030-031-034>040-042>050-191300-
...SOUTHEAST SOUTH CAROLINA...

CITY           SKY/WX    TMP DP  RH WIND       PRES   REMARKS
N CHARLESTON   PTCLDY    50  49  96 N3        30.03R
6HR MIN TEMP:  50; 6HR MAX TEMP:  60;

WATERFRONT PRK   N/A     57  54  89 CALM      30.01R
MOUNT PLEASANT LGT RAIN  52  50  93 CALM      30.03R
JOHNS ISLAND   FAIR      52  52 100 CALM      30.03R FOG
PINOPOLIS        N/A     52  50  93 NE5       29.96R
MONCKS CORNER  FAIR      48  46  93 N3        30.05R
SUMMERVILLE    FOG      N/A N/A N/A N3        30.05R VSB 1
BEAUFORT MCAS  PTCLDY    54  52  93 W3        30.03R
6HR MIN TEMP:  54; 6HR MAX TEMP:  62;

BEAUFORT ARPT  FAIR      55  55 100 NW3       30.03R
HILTON HEAD IS CLEAR     59  57  94 SW7       30.03R
WALTERBORO     SUNNY     50  50 100 CALM      30.05R
ALLENDALE      FAIR      50  48  93 CALM      30.03R

...SOUTHERN MIDLANDS AND PEE DEE...

CITY           SKY/WX    TMP DP  RH WIND       PRES   REMARKS
GEORGETOWN     FAIR      46  45  93 N5        30.05R
KINGSTREE      FAIR      45  41  87 CALM      30.07R
ORANGEBURG     CLEAR     50  40  68 NE6       30.05R
6HR MIN TEMP:  48; 6HR MAX TEMP:  59;

BARNWELL       FAIR      50  43  76 CALM      30.05R
AIKEN          FAIR      45  36  70 CALM      30.08S
MANNING        FAIR      45  34  65 CALM      30.06R
COLUMBIA       CLEAR     43  39  86 CALM      30.06R
6HR MIN TEMP:  42; 6HR MAX TEMP:  53;

SUMTER         CLEAR     43  37  80 NE8       30.04R
6HR MIN TEMP:  42; 6HR MAX TEMP:  50;

FLORENCE       CLEAR     44  38  79 N5        30.08R
6HR MIN TEMP:  44; 6HR MAX TEMP:  51;

MYRTLE BEACH   NOT AVBL
N MYRTLE BEACH CLEAR     43  43 100 NE5       30.05R
6HR MIN TEMP:  43; 6HR MAX TEMP:  55;


$$

GAZ063-065-086>088-099>101-113>116-118-119-134>141-150-191300-
...SOUTHEAST GEORGIA...

CITY           SKY/WX    TMP DP  RH WIND       PRES   REMARKS
SAVANNAH ARPT  PTCLDY    55  54  96 CALM      30.04S
6HR MIN TEMP:  55; 6HR MAX TEMP:  61;

HUNTER AAF     CLEAR     55  55 100 W5        30.01S FOG
6HR MIN TEMP:  54; 6HR MAX TEMP:  61;

FORT STEWART   CLEAR     54  52  94 CALM      30.02S FOG
6HR MIN TEMP:  53; 6HR MAX TEMP:  63;

STATESBORO     CLEAR     51  32  48 CALM      30.05R HAZE
SYLVANIA       FOG      N/A N/A N/A CALM      30.05S VSB 1/4
CLAXTON        FOG      N/A N/A N/A CALM      30.05S VSB 1/4

...CSRA...CENTRAL AND FAR SOUTHEAST GEORGIA...

CITY           SKY/WX    TMP DP  RH WIND       PRES   REMARKS
THOMSON        CLEAR     47  47 100 CALM      30.10R
AUGUSTA-BUSH   CLEAR     49  46  90 CALM        N/A
6HR MIN TEMP:  47; 6HR MAX TEMP:  59;

AUGUSTA-DANIEL CLEAR     53  43  68 NE3       30.05R
SWAINSBORO     CLOUDY    52  50  93 MISG      30.06S FOG
VIDALIA        FOG       54  54 100 CALM      30.06R VSB 1/2
EASTMAN        FOG       52  51  97 CALM      30.08R VSB 1/2
HAZLEHURST     FOG       56  56 100 CALM      30.05R VSB 1/2
ALMA           FOG       51  51 100 CALM      30.05R VSB 1/4
6HR MIN TEMP:  51; 6HR MAX TEMP:  58;

WAYCROSS       CLEAR     55  55 100 SW3       30.06R
JESUP          FOG       54  52  94 CALM      30.06S VSB 1/2
BAXLEY         FOG       54  54 100 CALM      30.05R VSB 1/4
BRUNSWICK      FOG       54  54 100 CALM      30.06S VSB 1/4
SAINT SIMONS   CLEAR     57  56  96 CALM      30.05R FOG
6HR MIN TEMP:  56; 6HR MAX TEMP:  64;


$$

SCZ027-028-034-036>038-045-046-048>050-GAZ119-141-191300-
...LAKE AND SUPPLEMENTAL COASTAL OBSERVATIONS...

STATION/POSITION TIME  TEMP    WIND        PRES    WAVE   SWELL
                       AIR SEA DIR/SP/G            HT/PER HT/PER/DIR
                 (UTC) (F)     (DEG/KT/KT) (MB)    (FT/S) (FT/S/D)
WINYAH BAY       1145   53      50/  8     1017.0S
LAKE MURRAY      1150   48      20/  1/  2 1017.3R
ACE BASIN NERRS  1145   53        CALM     1017.0R
FORT PULASKI     1200   60 57  290/  3/  4 1017.1
SAPELO ISLAND    1200   57     180/  2     1017.0

$$

ANZ835-935-AMZ111-154-330-350-352-354-370-450-454-472-191300-
...C-MAN AND BUOY OBSERVATIONS...

STATION/POSITION TIME  TEMP    WIND        PRES    WAVE   SWELL
                       AIR SEA DIR/SP/G            HT/PER HT/PER/DIR
                 (UTC) (F)     (DEG/KT/KT) (MB)    (FT/S) (FT/S/D)
BUOY 41004       1150   69 70   80/ 10/ 12 1015.6R   2/ 5   2/190/ 5
BUOY 41008       1150   60 59  240/  6/  6 1017.0R   1
FOLLY BEACH CMAN 1200   57      10/  3/  3 1017.2R
CAPERS NEARSHORE NOT AVBL
FRIPP NEARSHORE  1208   58 57  290/  6/  8 1016.5R


STATION/POSITION TIME  TEMP    WIND        PRES    WAVE   SWELL
                       AIR SEA DIR/SP/G            HT/PER HT/PER/DIR
                 (UTC) (F)     (DEG/KT/KT) (MB)    (FT/S) (FT/S/D)
5E ST. MARYS GA  1200      63                N/A     1
FRYING PAN BUOY  1210   62 70   50/  8/ 12 1017.5
BUOY 41025       1150   53 75   20/ 19/ 23 1016.8R   6/10   3/ 60/10
CAPE LOOKOUT NC  1200   47     360/ 10/ 11 1018.0R
BUOY 41002       1150   67 71  350/ 12/ 16 1016.2R   8/ 8   8/340/ 8
BUOY 41010       NOT AVBL
ST AUGUSTINE FL  1200   63 62  300/  6/  8 1018.7R


$$



USA.gov is the U.S. government's official web portal to all federal, state and local government web resources and services.